TimeCST,TemperatureF,Dew PointF,Humidity,Sea Level PressureIn,VisibilityMPH,Wind Direction,Wind SpeedMPH,Gust SpeedMPH,PrecipitationIn,Events,Conditions,WindDirDegrees,DateUTC
12:01 AM,-5.8,-9.4,84,30.27,10.0,North,4.6,-,N/A,Snow,Light Snow,360,2012-12-27 06:01:00
12:03 AM,-5.8,-9.4,84,30.27,10.0,North,3.5,-,N/A,Snow,Light Snow,360,2012-12-27 06:03:00
12:04 AM,-5.8,-9.4,84,30.27,10.0,North,3.5,-,N/A,Snow,Light Snow,360,2012-12-27 06:04:00
12:05 AM,-5.8,-9.4,84,30.27,10.0,North,3.5,-,N/A,Snow,Light Snow,350,2012-12-27 06:05:00
12:13 AM,-5.8,-9.4,84,30.27,10.0,North,3.5,-,N/A,Snow,Light Snow,350,2012-12-27 06:13:00
12:32 AM,-5.8,-9.4,84,30.27,10.0,North,4.6,-,N/A,,Overcast,360,2012-12-27 06:32:00
12:40 AM,-5.8,-9.4,84,30.27,10.0,North,4.6,-,N/A,,Overcast,360,2012-12-27 06:40:00
12:43 AM,-5.8,-9.4,84,30.27,10.0,North,4.6,-,N/A,,Overcast,10,2012-12-27 06:43:00
12:48 AM,-5.8,-9.4,84,30.27,10.0,North,3.5,-,N/A,,Mostly Cloudy,10,2012-12-27 06:48:00
12:50 AM,-5.8,-9.4,84,30.27,10.0,North,3.5,-,N/A,,Mostly Cloudy,10,2012-12-27 06:50:00
12:52 AM,-5.8,-9.4,84,30.27,10.0,North,3.5,-,N/A,,Mostly Cloudy,10,2012-12-27 06:52:00
12:55 AM,-5.8,-10.1,82,30.27,10.0,North,4.6,-,0.00,,Mostly Cloudy,10,2012-12-27 06:55:00
1:19 AM,-5.8,-9.4,84,30.26,10.0,Calm,Calm,-,N/A,,Partly Cloudy,0,2012-12-27 07:19:00
1:49 AM,-9.4,-13.0,84,30.26,10.0,Calm,Calm,-,N/A,,Mostly Cloudy,0,2012-12-27 07:49:00
1:55 AM,-9.4,-14.1,80,30.26,10.0,Calm,Calm,-,N/A,,Mostly Cloudy,0,2012-12-27 07:55:00
1:56 AM,-9.4,-14.8,77,30.26,10.0,Calm,Calm,-,N/A,,Scattered Clouds,0,2012-12-27 07:56:00
2:55 AM,-8.3,-13.2,79,30.26,10.0,Calm,Calm,-,N/A,,Mostly Cloudy,0,2012-12-27 08:55:00
3:55 AM,-11.6,-16.1,80,30.25,10.0,NW,3.5,-,N/A,,Mostly Cloudy,310,2012-12-27 09:55:00
4:30 AM,-11.2,-14.8,84,30.25,10.0,Calm,Calm,-,N/A,,Partly Cloudy,0,2012-12-27 10:30:00
4:55 AM,-8.3,-12.6,81,30.24,10.0,NW,4.6,-,N/A,,Partly Cloudy,320,2012-12-27 10:55:00
5:55 AM,-5.3,-9.4,82,30.23,10.0,North,3.5,-,N/A,,Mostly Cloudy,360,2012-12-27 11:55:00
6:55 AM,-5.1,-9.2,82,30.23,10.0,NW,3.5,-,N/A,,Overcast,320,2012-12-27 12:55:00
7:55 AM,-2.0,-6.0,83,30.23,10.0,Calm,Calm,-,N/A,,Mostly Cloudy,0,2012-12-27 13:55:00
8:12 AM,-2.2,-5.8,85,30.23,10.0,NW,3.5,-,N/A,,Mostly Cloudy,320,2012-12-27 14:12:00
8:24 AM,-2.2,-5.8,85,30.23,10.0,Calm,Calm,-,N/A,,Mostly Cloudy,0,2012-12-27 14:24:00
8:42 AM,-0.4,-5.8,78,30.23,10.0,Calm,Calm,-,N/A,,Overcast,0,2012-12-27 14:42:00
8:46 AM,-0.4,-5.8,78,30.23,10.0,Calm,Calm,-,N/A,,Overcast,0,2012-12-27 14:46:00
8:55 AM,-0.9,-4.7,84,30.23,10.0,Calm,Calm,-,N/A,,Overcast,0,2012-12-27 14:55:00
9:23 AM,-0.4,-4.0,85,30.23,10.0,Calm,Calm,-,N/A,,Overcast,0,2012-12-27 15:23:00
9:30 AM,-0.4,-4.0,85,30.23,9.0,Calm,Calm,-,N/A,,Overcast,0,2012-12-27 15:30:00
9:33 AM,-0.4,-4.0,85,30.23,9.0,Calm,Calm,-,N/A,,Overcast,0,2012-12-27 15:33:00
9:47 AM,-0.4,-4.0,85,30.23,5.0,Calm,Calm,-,N/A,,Overcast,0,2012-12-27 15:47:00
9:50 AM,-0.4,-4.0,85,30.23,2.5,Calm,Calm,-,N/A,,Overcast,0,2012-12-27 15:50:00
9:55 AM,0.7,-2.9,85,30.24,2.0,Calm,Calm,-,0.00,Snow,Light Snow,0,2012-12-27 15:55:00
10:00 AM,1.4,-2.2,85,30.24,3.0,Calm,Calm,-,N/A,Snow,Light Snow,0,2012-12-27 16:00:00
10:04 AM,1.4,-2.2,85,30.24,3.0,Calm,Calm,-,N/A,Snow,Light Snow,0,2012-12-27 16:04:00
10:06 AM,1.4,-2.2,85,30.23,2.5,Calm,Calm,-,N/A,Snow,Light Snow,0,2012-12-27 16:06:00
10:16 AM,3.2,-2.2,78,30.23,2.5,Calm,Calm,-,N/A,Snow,Light Snow,0,2012-12-27 16:16:00
10:18 AM,1.4,-2.2,85,30.23,3.0,Calm,Calm,-,N/A,Snow,Light Snow,0,2012-12-27 16:18:00
10:20 AM,1.4,-2.2,85,30.23,2.5,Calm,Calm,-,N/A,Snow,Light Snow,0,2012-12-27 16:20:00
10:38 AM,3.2,-0.4,85,30.23,3.0,Calm,Calm,-,N/A,Snow,Light Snow,0,2012-12-27 16:38:00
10:46 AM,3.2,-0.4,85,30.23,2.5,Calm,Calm,-,N/A,Snow,Light Snow,0,2012-12-27 16:46:00
10:51 AM,3.2,-0.4,85,30.24,2.5,Calm,Calm,-,N/A,Snow,Light Snow,0,2012-12-27 16:51:00
10:55 AM,3.4,-0.9,82,30.23,2.0,Calm,Calm,-,0.00,Snow,Light Snow,0,2012-12-27 16:55:00
10:58 AM,3.2,-0.4,85,30.23,2.5,Calm,Calm,-,N/A,Snow,Light Snow,0,2012-12-27 16:58:00
11:02 AM,3.2,-0.4,85,30.23,3.0,Calm,Calm,-,N/A,Snow,Light Snow,0,2012-12-27 17:02:00
11:55 AM,5.4,0.7,81,30.21,6.0,SSE,3.5,-,0.00,,Haze,160,2012-12-27 17:55:00
12:30 PM,5.0,1.4,85,30.20,10.0,South,3.5,-,N/A,Snow,Light Snow,170,2012-12-27 18:30:00
12:32 PM,6.8,1.4,79,30.19,9.0,SSE,3.5,-,N/A,Snow,Light Snow,160,2012-12-27 18:32:00
12:55 PM,6.1,1.6,82,30.19,4.0,SSE,3.5,-,0.00,Snow,Light Snow,150,2012-12-27 18:55:00
1:36 PM,6.8,3.2,85,30.17,10.0,SSE,5.8,-,N/A,,Overcast,150,2012-12-27 19:36:00
1:43 PM,6.8,3.2,85,30.17,10.0,SSE,5.8,-,N/A,,Overcast,150,2012-12-27 19:43:00
1:55 PM,7.3,2.8,82,30.17,6.0,SSE,6.9,-,0.00,Snow,Light Snow,150,2012-12-27 19:55:00
1:58 PM,6.8,3.2,85,30.17,7.0,SSE,5.8,-,N/A,,Overcast,150,2012-12-27 19:58:00
2:20 PM,8.6,3.2,79,30.17,8.0,SSE,4.6,-,N/A,Snow,Light Snow,150,2012-12-27 20:20:00
2:25 PM,8.6,3.2,79,30.16,7.0,SE,3.5,-,N/A,Snow,Light Snow,140,2012-12-27 20:25:00
2:42 PM,8.6,3.2,79,30.17,8.0,SSE,3.5,-,N/A,,Overcast,160,2012-12-27 20:42:00
2:48 PM,8.6,3.2,79,30.17,7.0,SSE,3.5,-,N/A,,Overcast,160,2012-12-27 20:48:00
2:55 PM,8.1,3.9,83,30.17,8.0,SSE,3.5,-,0.00,,Overcast,150,2012-12-27 20:55:00
2:57 PM,8.6,3.2,79,30.17,8.0,SSE,3.5,-,N/A,,Overcast,150,2012-12-27 20:57:00
3:18 PM,8.6,3.2,79,30.17,9.0,Calm,Calm,-,N/A,Snow,Light Snow,0,2012-12-27 21:18:00
3:24 PM,8.6,3.2,79,30.17,6.0,Calm,Calm,-,N/A,Snow,Light Snow,0,2012-12-27 21:24:00
3:25 PM,8.6,3.2,79,30.17,6.0,Calm,Calm,-,N/A,Snow,Light Snow,0,2012-12-27 21:25:00
3:34 PM,8.6,3.2,79,30.17,3.0,SE,3.5,-,N/A,Snow,Light Snow,130,2012-12-27 21:34:00
3:55 PM,7.7,3.9,85,30.18,4.0,SE,3.5,-,0.00,Snow,Light Snow,130,2012-12-27 21:55:00
4:55 PM,6.8,3.6,87,30.18,4.0,SE,3.5,-,0.00,,Overcast,140,2012-12-27 22:55:00
5:03 PM,6.8,3.2,85,30.18,2.5,SE,4.6,-,N/A,Snow,Light Snow,140,2012-12-27 23:03:00
5:04 PM,6.8,3.2,85,30.18,2.5,SE,4.6,-,N/A,Snow,Light Snow,140,2012-12-27 23:04:00
5:09 PM,6.8,3.2,85,30.18,3.0,SE,4.6,-,N/A,,Overcast,140,2012-12-27 23:09:00
5:30 PM,5.0,1.4,85,30.18,6.0,SE,4.6,-,N/A,,Overcast,140,2012-12-27 23:30:00
5:32 PM,5.0,1.4,85,30.18,6.0,SE,4.6,-,N/A,,Overcast,140,2012-12-27 23:32:00
5:54 PM,5.0,1.4,85,30.18,8.0,SE,3.5,-,N/A,,Overcast,140,2012-12-27 23:54:00
5:55 PM,4.6,1.9,89,30.18,8.0,SE,3.5,-,0.00,,Overcast,140,2012-12-27 23:55:00
6:18 PM,3.2,-0.4,85,30.19,8.0,Calm,Calm,-,N/A,,Overcast,0,2012-12-28 00:18:00
6:20 PM,3.2,-0.4,85,30.19,8.0,Calm,Calm,-,N/A,,Overcast,0,2012-12-28 00:20:00
6:42 PM,-0.4,-4.0,85,30.19,10.0,Calm,Calm,-,N/A,,Overcast,0,2012-12-28 00:42:00
6:43 PM,-0.4,-5.8,78,30.19,10.0,Calm,Calm,-,N/A,,Overcast,0,2012-12-28 00:43:00
6:47 PM,-2.2,-5.8,85,30.19,10.0,Calm,Calm,-,N/A,,Overcast,0,2012-12-28 00:47:00
6:55 PM,-4.4,-8.7,82,30.19,8.0,Calm,Calm,-,N/A,,Overcast,0,2012-12-28 00:55:00
6:57 PM,-4.0,-9.4,78,30.19,8.0,Calm,Calm,-,N/A,,Overcast,0,2012-12-28 00:57:00
7:00 PM,-5.8,-9.4,84,30.19,10.0,Calm,Calm,-,N/A,,Overcast,0,2012-12-28 01:00:00
7:12 PM,-5.8,-11.2,77,30.19,9.0,Calm,Calm,-,N/A,,Overcast,0,2012-12-28 01:12:00
7:22 PM,-5.8,-9.4,84,30.19,9.0,Calm,Calm,-,N/A,,Overcast,0,2012-12-28 01:22:00
7:30 PM,-5.8,-9.4,84,30.19,4.0,Calm,Calm,-,N/A,,Haze,0,2012-12-28 01:30:00
7:32 PM,-5.8,-9.4,84,30.19,3.0,Calm,Calm,-,N/A,,Haze,0,2012-12-28 01:32:00
7:35 PM,-5.8,-9.4,84,30.19,3.0,Calm,Calm,-,N/A,,Haze,0,2012-12-28 01:35:00
7:37 PM,-5.8,-9.4,84,30.19,3.0,Calm,Calm,-,N/A,,Haze,0,2012-12-28 01:37:00
7:40 PM,-5.8,-9.4,84,30.19,4.0,Calm,Calm,-,N/A,Snow,Light Snow,0,2012-12-28 01:40:00
7:55 PM,-6.2,-10.1,83,30.19,10.0,Calm,Calm,-,0.00,Snow,Light Snow,0,2012-12-28 01:55:00
8:04 PM,-5.8,-9.4,84,30.19,7.0,Calm,Calm,-,N/A,,Overcast,0,2012-12-28 02:04:00
8:11 PM,-5.8,-9.4,84,30.19,7.0,Calm,Calm,-,N/A,,Overcast,0,2012-12-28 02:11:00
8:43 PM,-5.8,-9.4,84,30.19,10.0,South,3.5,-,N/A,,Overcast,190,2012-12-28 02:43:00
8:45 PM,-5.8,-9.4,84,30.18,10.0,Calm,Calm,-,N/A,,Overcast,0,2012-12-28 02:45:00
8:55 PM,-5.1,-9.0,83,30.18,10.0,Calm,Calm,-,0.00,,Overcast,0,2012-12-28 02:55:00
9:07 PM,-2.2,-5.8,85,30.18,10.0,Calm,Calm,-,N/A,,Overcast,0,2012-12-28 03:07:00
9:24 PM,-0.4,-4.0,85,30.17,10.0,SW,3.5,-,N/A,,Overcast,220,2012-12-28 03:24:00
9:37 PM,1.4,-2.2,85,30.17,10.0,SW,3.5,-,N/A,,Overcast,230,2012-12-28 03:37:00
9:55 PM,1.6,-1.7,86,30.17,10.0,WSW,4.6,-,N/A,,Overcast,240,2012-12-28 03:55:00
10:00 PM,3.2,-0.4,85,30.17,10.0,WSW,3.5,-,N/A,,Overcast,240,2012-12-28 04:00:00
10:03 PM,3.2,-0.4,85,30.17,10.0,WSW,3.5,-,N/A,,Overcast,240,2012-12-28 04:03:00
10:12 PM,3.2,1.4,92,30.16,10.0,WSW,3.5,-,N/A,,Overcast,250,2012-12-28 04:12:00
10:55 PM,3.2,-0.4,85,30.16,10.0,WSW,3.5,-,N/A,,Overcast,250,2012-12-28 04:55:00
11:55 PM,-4.9,-9.4,81,30.17,10.0,West,6.9,-,N/A,,Partly Cloudy,260,2012-12-28 05:55:00